Back to catalog

THOR ABLESTAR DEB

AliveLEO
NORAD 261·DEBRIS·🇺🇸 United States

Launched Jun 29, 1961 from Cape Canaveral Space Force Station

Loading…

Next Passes (next 24 hours)

TLE

FreshSource: Space-Track

Epoch: Sep 14, 2026, 12:34 UTC

1 00261U 61015CH  26257.52420712  .00000058  00000-0  88495-4 0  9998
2 00261  66.6810 189.3849 0095149 272.7106  86.3089 14.01072040324601

Track THOR ABLESTAR DEB in real time with AllMySat

Download on the App Store